Back to catalog

STARLINK-38161

AliveCommunicationsSSO
NORAD 100106·PAYLOAD·🇺🇸 United States

Launched Jul 21, 2026 from Vandenberg Space Force Base

Loading…

Next Passes (next 24 hours)

TLE

FreshSource: Space-Track

Epoch: Sep 14, 2026, 14:13 UTC

1 A0106U 26166F   26257.59301777  .00211612  00000-0  13856-2 0  9997
2 A0106  97.2832 275.6515 0000974 128.3126 231.8227 15.75175557  8678

Track STARLINK-38161 in real time with AllMySat

Download on the App Store